Date,Time,Wetness (Wet Dry or Ice),Wind Speed (m/s),Temperature (C),Humidity (%),Pressure (mb),Radiation (W/m^2)
2023-03-03,06:20:00,DRY,3.63,4.37,68.3,773.00,0.0
2023-03-03,06:25:00,DRY,2.95,4.25,69.0,773.50,0.0
2023-03-03,06:30:00,DRY,3.67,4.23,70.0,773.00,0.0
2023-03-03,06:35:00,DRY,3.65,4.30,67.5,773.50,0.0
2023-03-03,06:40:00,DRY,3.60,4.50,66.7,773.00,0.0
2023-03-03,06:45:00,DRY,3.85,4.55,65.5,773.00,0.0
2023-03-03,06:50:00,DRY,3.53,4.47,69.7,773.00,0.0
2023-03-03,06:55:00,DRY,3.45,4.25,77.0,773.00,0.0
2023-03-03,07:00:00,DRY,4.20,4.20,77.3,773.33,0.0
2023-03-03,07:05:00,DRY,4.00,4.25,77.0,774.00,0.0
2023-03-03,07:10:00,DRY,3.50,4.17,80.7,774.00,0.0
2023-03-03,07:15:00,DRY,4.00,4.15,85.0,774.00,0.0
2023-03-03,07:20:00,DRY,3.77,4.10,86.3,774.00,0.0
2023-03-03,07:25:00,DRY,3.85,4.10,87.0,774.00,0.0
2023-03-03,07:30:00,DRY,4.07,4.07,89.3,774.00,0.0
2023-03-03,07:35:00,DRY,4.05,4.20,90.5,774.00,0.0
2023-03-03,07:40:00,DRY,3.80,4.20,91.0,774.00,2.3
2023-03-03,07:45:00,DRY,3.35,4.30,94.0,774.00,6.0
2023-03-03,07:50:00,DRY,2.77,4.27,92.7,774.00,9.0
2023-03-03,07:55:00,DRY,2.65,4.25,92.5,774.00,11.5
2023-03-03,08:00:00,DRY,3.40,4.27,90.0,774.00,14.3
2023-03-03,08:05:00,DRY,4.25,4.25,90.0,774.00,17.5
2023-03-03,08:10:00,DRY,3.53,4.23,87.3,774.00,20.0
2023-03-03,08:15:00,DRY,3.70,4.15,87.0,774.00,22.0
2023-03-03,08:20:00,DRY,2.63,4.13,87.0,774.00,24.7
2023-03-03,08:25:00,DRY,3.00,4.35,85.0,774.00,27.5
2023-03-03,08:30:00,DRY,2.83,4.50,79.7,774.00,29.0
2023-03-03,08:35:00,DRY,2.95,4.75,78.0,774.00,70.0
2023-03-03,08:40:00,DRY,2.70,5.07,75.0,774.00,235.7
2023-03-03,08:45:00,DRY,2.70,5.30,72.0,774.00,267.5
2023-03-03,08:50:00,DRY,2.07,5.50,67.0,774.00,287.7
2023-03-03,08:55:00,DRY,2.45,5.75,60.5,774.00,308.0
2023-03-03,09:00:00,DRY,3.07,5.70,59.3,774.00,328.3
2023-03-03,09:05:00,DRY,2.25,5.90,56.0,774.00,349.5
2023-03-03,09:10:00,DRY,2.10,6.03,55.3,774.00,369.7
2023-03-03,09:15:00,DRY,2.45,6.20,56.0,774.00,390.0
2023-03-03,09:20:00,DRY,2.93,6.20,55.7,774.00,411.0
2023-03-03,09:25:00,DRY,2.65,6.45,55.5,774.00,431.0
2023-03-03,09:30:00,DRY,2.77,6.53,56.3,774.33,451.3
2023-03-03,09:35:00,DRY,3.05,6.60,57.0,774.00,470.5
2023-03-03,09:40:00,DRY,1.93,6.63,57.0,774.33,489.3
2023-03-03,09:45:00,DRY,2.50,6.75,58.5,775.00,509.0
2023-03-03,09:50:00,DRY,1.53,6.83,59.3,775.00,527.3
2023-03-03,09:55:00,DRY,2.55,6.90,59.0,775.00,546.0
2023-03-03,10:00:00,DRY,1.37,6.93,60.0,775.00,565.3
2023-03-03,10:05:00,DRY,1.50,7.20,60.5,775.00,584.5
2023-03-03,10:10:00,DRY,2.23,7.13,59.0,775.00,593.3
2023-03-03,10:15:00,DRY,2.30,7.05,62.0,775.00,603.5
2023-03-03,10:20:00,DRY,1.97,7.13,65.7,775.00,623.0
2023-03-03,10:25:00,DRY,1.50,7.15,68.0,775.00,654.0
2023-03-03,10:30:00,DRY,1.43,7.40,66.3,775.00,666.3
2023-03-03,10:35:00,DRY,1.05,7.55,65.5,775.00,689.0
2023-03-03,10:40:00,DRY,2.17,7.73,65.3,775.00,699.7
2023-03-03,10:45:00,DRY,1.10,7.70,63.5,775.00,712.5
2023-03-03,10:50:00,DRY,2.03,8.03,65.0,775.00,722.0
2023-03-03,10:55:00,DRY,2.40,7.90,66.0,775.00,738.5
2023-03-03,11:00:00,DRY,1.90,7.93,65.7,775.00,751.0
2023-03-03,11:05:00,DRY,1.85,8.20,67.5,775.00,763.0
2023-03-03,11:10:00,DRY,2.17,8.33,66.3,775.00,776.7
2023-03-03,11:15:00,DRY,1.65,8.25,69.5,775.00,792.0
2023-03-03,11:20:00,DRY,2.10,8.57,69.3,775.00,799.7
2023-03-03,11:25:00,DRY,2.40,8.50,70.0,775.00,800.0
2023-03-03,11:30:00,DRY,1.60,8.13,74.3,775.00,800.0
2023-03-03,11:35:00,DRY,1.30,8.20,76.5,775.00,800.0
2023-03-03,11:40:00,DRY,1.60,8.70,74.3,775.00,800.0
2023-03-03,11:45:00,DRY,1.95,8.25,78.0,775.00,800.0
2023-03-03,11:50:00,DRY,1.43,8.63,78.7,775.00,800.0
2023-03-03,11:55:00,DRY,2.10,8.60,78.0,775.00,800.0
2023-03-03,12:00:00,DRY,1.47,8.83,75.0,774.33,800.0
2023-03-03,12:05:00,DRY,1.25,9.30,75.5,774.00,800.0
2023-03-03,12:10:00,DRY,1.83,9.17,78.3,774.00,800.0
2023-03-03,12:15:00,DRY,1.90,9.30,80.0,774.00,800.0
2023-03-03,12:20:00,DRY,0.83,9.00,80.3,774.00,800.0
2023-03-03,12:25:00,DRY,1.60,8.85,81.0,774.00,800.0
2023-03-03,12:30:00,DRY,1.53,9.00,78.7,774.00,800.0
2023-03-03,12:35:00,DRY,0.85,9.45,78.0,774.00,800.0
2023-03-03,12:40:00,DRY,1.47,9.87,74.3,774.00,800.0
2023-03-03,12:45:00,DRY,1.75,9.30,76.0,774.00,800.0
2023-03-03,12:50:00,DRY,1.37,9.43,75.3,774.00,800.0
2023-03-03,12:55:00,DRY,1.60,9.65,72.5,774.00,800.0
2023-03-03,13:00:00,DRY,1.97,9.83,77.3,774.00,800.0
2023-03-03,13:05:00,DRY,1.55,9.55,81.5,774.00,800.0
2023-03-03,13:10:00,DRY,1.87,9.20,86.0,774.00,780.0
2023-03-03,13:15:00,DRY,0.95,8.95,85.5,774.00,534.5
2023-03-03,13:20:00,DRY,1.07,8.93,85.7,774.00,536.3
2023-03-03,13:25:00,DRY,1.00,8.60,85.0,774.00,232.5
2023-03-03,13:30:00,DRY,1.25,8.45,85.5,774.00,242.5
2023-03-03,13:35:00,DRY,1.30,8.00,87.0,774.00,266.0
2023-03-03,13:40:00,DRY,0.80,8.23,85.3,774.00,282.3
2023-03-03,13:45:00,DRY,1.25,8.45,83.5,774.00,308.0
2023-03-03,13:50:00,DRY,1.90,8.40,83.3,773.67,414.0
2023-03-03,13:55:00,DRY,1.05,8.65,84.0,773.00,800.0
2023-03-03,14:00:00,DRY,1.47,9.30,81.0,773.00,800.0
2023-03-03,14:05:00,DRY,2.20,9.35,80.0,773.00,800.0
2023-03-03,14:10:00,DRY,1.43,9.27,81.3,773.00,800.0
2023-03-03,14:15:00,DRY,1.80,9.25,82.0,773.00,800.0
2023-03-03,14:20:00,DRY,1.37,9.10,81.7,773.00,800.0
2023-03-03,14:25:00,DRY,2.30,9.20,82.5,773.00,627.0
2023-03-03,14:30:00,DRY,1.67,9.07,85.0,773.00,529.3
2023-03-03,14:35:00,DRY,2.00,8.85,84.0,773.00,337.5
2023-03-03,14:40:00,DRY,2.00,8.67,87.7,773.00,766.7
2023-03-03,14:45:00,DRY,1.65,9.30,87.5,773.00,800.0
2023-03-03,14:50:00,DRY,1.63,10.33,84.0,773.00,800.0
2023-03-03,14:55:00,DRY,0.80,10.35,81.0,773.00,563.0
2023-03-03,15:00:00,DRY,1.37,10.03,84.7,773.00,791.0
2023-03-03,15:05:00,DRY,1.05,10.25,82.0,773.00,420.0
2023-03-03,15:10:00,DRY,2.13,9.67,83.7,773.00,373.7
2023-03-03,15:15:00,DRY,1.95,9.45,86.0,773.00,408.5
2023-03-03,15:20:00,DRY,0.97,10.13,80.3,773.00,757.3
2023-03-03,15:25:00,DRY,1.85,10.40,77.5,773.00,800.0
2023-03-03,15:30:00,DRY,1.40,10.30,83.3,773.00,793.0
2023-03-03,15:35:00,DRY,0.50,10.25,82.0,773.00,712.5
2023-03-03,15:40:00,DRY,1.90,9.87,83.0,773.00,467.7
2023-03-03,15:45:00,DRY,1.95,10.70,81.0,772.00,800.0
2023-03-03,15:50:00,DRY,1.70,10.07,85.7,772.33,743.3
2023-03-03,15:55:00,DRY,2.15,10.45,85.0,772.50,430.5
2023-03-03,16:00:00,DRY,1.83,10.07,84.7,772.33,584.3
2023-03-03,16:05:00,DRY,0.95,9.75,86.5,772.50,667.0
2023-03-03,16:10:00,DRY,1.60,10.43,85.3,772.33,478.7
2023-03-03,16:15:00,DRY,0.80,10.45,77.0,773.00,776.5
2023-03-03,16:20:00,DRY,0.90,10.23,79.0,772.67,800.3
2023-03-03,16:25:00,DRY,1.15,10.15,86.0,772.50,799.5
2023-03-03,16:30:00,DRY,1.53,10.60,82.7,772.67,531.7
2023-03-03,16:35:00,DRY,1.60,9.20,87.0,772.00,418.5
2023-03-03,16:40:00,DRY,1.30,8.97,89.3,772.00,446.0
2023-03-03,16:45:00,DRY,1.45,9.90,80.5,772.50,556.5
2023-03-03,16:50:00,DRY,2.07,9.83,81.0,772.33,525.0
2023-03-03,16:55:00,DRY,1.40,9.80,70.5,772.50,496.0
2023-03-03,17:00:00,DRY,2.10,9.83,72.3,772.33,484.0
2023-03-03,17:05:00,DRY,2.20,9.30,89.5,772.50,516.0
2023-03-03,17:10:00,DRY,1.77,8.93,82.0,772.00,454.0
2023-03-03,17:15:00,DRY,1.15,9.75,74.0,772.50,428.0
2023-03-03,17:20:00,DRY,1.30,10.17,71.7,772.67,399.7
2023-03-03,17:25:00,DRY,0.50,10.10,68.5,773.00,375.5
2023-03-03,17:30:00,DRY,1.80,10.50,51.7,772.00,356.0
2023-03-03,17:35:00,DRY,2.20,10.60,48.0,772.00,334.0
2023-03-03,17:40:00,DRY,2.03,9.97,62.0,772.00,310.7
2023-03-03,17:45:00,DRY,2.10,9.00,73.0,772.50,288.0
2023-03-03,17:50:00,DRY,2.00,8.73,77.3,772.67,268.0
2023-03-03,17:55:00,DRY,0.70,9.00,74.0,772.50,247.5
2023-03-03,18:00:00,DRY,1.97,9.67,65.7,773.00,228.3
2023-03-03,18:05:00,DRY,1.00,10.00,56.0,773.00,208.5
2023-03-03,18:10:00,DRY,1.30,10.03,55.7,773.00,187.0
2023-03-03,18:15:00,DRY,1.15,9.20,61.5,773.00,165.0
2023-03-03,18:20:00,DRY,0.87,8.50,67.7,773.00,145.0
2023-03-03,18:25:00,DRY,1.10,8.40,64.5,773.00,124.0
2023-03-03,18:30:00,DRY,0.80,7.90,76.7,773.00,103.3
2023-03-03,18:35:00,DRY,1.35,7.60,80.0,773.00,84.5
2023-03-03,18:40:00,DRY,1.47,7.60,80.3,773.00,67.0
2023-03-03,18:45:00,DRY,1.35,7.75,78.0,773.00,43.5
2023-03-03,18:50:00,DRY,1.27,7.77,71.7,773.00,9.7
2023-03-03,18:55:00,DRY,1.10,7.55,76.0,773.00,7.5
2023-03-03,19:00:00,DRY,0.80,7.50,74.7,773.00,4.3
2023-03-03,19:05:00,DRY,1.70,7.45,70.5,773.00,1.5
2023-03-03,19:10:00,DRY,1.23,7.33,63.0,773.00,0.0
2023-03-03,19:15:00,DRY,0.65,7.25,61.0,773.00,0.0
2023-03-03,19:20:00,DRY,1.53,7.10,53.7,773.00,0.0
2023-03-03,19:25:00,DRY,1.15,7.00,52.0,773.00,0.0
2023-03-03,19:30:00,DRY,0.57,6.77,54.7,773.00,0.0
2023-03-03,19:35:00,DRY,1.00,6.45,53.5,773.00,0.0
2023-03-03,19:40:00,DRY,1.40,6.37,53.3,773.00,0.0
2023-03-03,19:45:00,DRY,0.70,6.25,57.0,773.00,0.0
2023-03-03,19:50:00,DRY,0.50,6.07,56.0,773.00,0.0
2023-03-03,19:55:00,DRY,0.90,6.00,53.5,773.00,0.0
2023-03-03,20:00:00,DRY,0.77,6.17,51.7,773.00,0.0
2023-03-03,20:05:00,DRY,0.35,6.15,52.0,773.00,0.0
2023-03-03,20:10:00,DRY,1.00,5.93,52.3,773.00,0.0
2023-03-03,20:15:00,DRY,0.90,5.75,52.0,773.00,0.0
2023-03-03,20:20:00,DRY,1.03,5.73,51.3,773.00,0.0
2023-03-03,20:25:00,DRY,0.90,5.80,52.0,773.00,0.0
2023-03-03,20:30:00,DRY,1.10,5.80,52.3,773.33,0.0
2023-03-03,20:35:00,DRY,1.45,5.95,50.0,774.00,0.0
2023-03-03,20:40:00,DRY,1.80,6.27,43.3,774.00,0.0
2023-03-03,20:45:00,DRY,1.90,6.55,41.0,774.00,0.0
2023-03-03,20:50:00,DRY,1.27,6.63,39.7,774.00,0.0
2023-03-03,20:55:00,DRY,0.50,6.55,40.0,774.00,0.0
2023-03-03,21:00:00,DRY,0.40,6.43,40.0,774.00,0.0
2023-03-03,21:05:00,DRY,0.35,6.30,40.0,774.00,0.0
2023-03-03,21:10:00,DRY,0.57,6.30,40.0,774.00,0.0
2023-03-03,21:15:00,DRY,0.40,6.30,40.0,774.00,0.0
2023-03-03,21:20:00,DRY,0.87,6.20,40.3,774.00,0.0
2023-03-03,21:25:00,DRY,1.05,6.05,41.5,774.00,0.0
2023-03-03,21:30:00,DRY,0.40,6.00,41.0,774.00,0.0
2023-03-03,21:35:00,DRY,0.15,6.05,41.0,774.00,0.0
2023-03-03,21:40:00,DRY,0.57,6.00,41.0,774.00,0.0
2023-03-03,21:45:00,DRY,0.75,6.20,40.0,774.00,0.0
2023-03-03,21:50:00,DRY,0.47,6.40,40.0,774.00,0.0
2023-03-03,21:55:00,DRY,0.45,6.25,40.5,774.00,0.0
2023-03-03,22:00:00,DRY,0.53,6.00,42.3,774.00,0.0
2023-03-03,22:05:00,DRY,0.50,5.85,45.5,774.00,0.0
2023-03-03,22:10:00,DRY,0.60,5.80,46.0,774.00,0.0
2023-03-03,22:15:00,DRY,1.15,5.75,46.0,774.00,0.0
2023-03-03,22:20:00,DRY,1.27,5.50,49.0,774.00,0.0
2023-03-03,22:25:00,DRY,1.30,5.50,55.0,774.00,0.0
2023-03-03,22:30:00,DRY,0.47,5.43,51.0,774.00,0.0
2023-03-03,22:35:00,DRY,1.20,5.40,47.0,774.00,0.0
2023-03-03,22:40:00,DRY,0.93,5.40,46.0,774.00,0.0
2023-03-03,22:45:00,DRY,1.00,5.50,46.0,774.00,0.0
2023-03-03,22:50:00,DRY,1.17,5.67,45.3,774.00,0.0
2023-03-03,22:55:00,DRY,0.45,5.70,45.0,774.00,0.0
2023-03-03,23:00:00,DRY,0.57,5.57,45.0,774.00,0.0
2023-03-03,23:05:00,DRY,1.05,5.50,45.5,774.00,0.0
2023-03-03,23:10:00,DRY,1.43,5.60,45.0,774.00,0.0
2023-03-03,23:15:00,DRY,2.00,5.80,45.0,774.00,0.0
2023-03-03,23:20:00,DRY,1.23,5.73,45.0,774.00,0.0
2023-03-03,23:25:00,DRY,1.70,5.55,47.5,774.00,0.0
2023-03-03,23:30:00,DRY,1.80,5.50,56.7,774.00,0.0
2023-03-03,23:35:00,DRY,1.65,5.50,50.0,774.00,0.0
2023-03-03,23:40:00,DRY,1.70,5.43,48.0,774.00,0.0
2023-03-03,23:45:00,DRY,1.45,5.40,47.0,774.00,0.0
2023-03-03,23:50:00,DRY,0.77,5.40,45.3,774.00,0.0
2023-03-03,23:55:00,DRY,1.80,5.45,43.5,774.00,0.0
2023-03-04,00:00:00,DRY,1.93,5.73,42.0,774.00,0.0
2023-03-04,00:05:00,DRY,2.00,5.90,43.0,774.00,0.0
2023-03-04,00:10:00,DRY,1.93,5.80,42.7,774.00,0.0
2023-03-04,00:15:00,DRY,1.95,5.90,42.0,773.50,0.0
2023-03-04,00:20:00,DRY,2.37,6.07,42.0,773.67,0.0
2023-03-04,00:25:00,DRY,2.45,6.15,42.0,773.00,0.0
2023-03-04,00:30:00,DRY,1.97,5.93,43.0,773.00,0.0
2023-03-04,00:35:00,DRY,1.85,5.85,43.0,773.00,0.0
2023-03-04,00:40:00,DRY,1.60,5.83,43.0,773.00,0.0
2023-03-04,00:45:00,DRY,2.00,6.00,43.0,773.00,0.0
2023-03-04,00:50:00,DRY,2.33,6.03,43.0,773.00,0.0
2023-03-04,00:55:00,DRY,2.70,6.20,40.5,773.00,0.0
2023-03-04,01:00:00,DRY,2.97,6.47,34.0,773.00,0.0
2023-03-04,01:05:00,DRY,2.30,6.55,30.5,773.00,0.0
2023-03-04,01:10:00,DRY,3.17,6.70,30.0,773.00,0.0
2023-03-04,01:15:00,DRY,3.50,6.75,29.5,773.00,0.0
2023-03-04,01:20:00,DRY,2.60,6.77,29.0,773.00,0.0
2023-03-04,01:25:00,DRY,2.70,6.70,29.0,773.00,0.0
2023-03-04,01:30:00,DRY,2.57,6.80,28.0,773.00,0.0
2023-03-04,01:35:00,DRY,3.20,6.85,28.5,773.00,0.0
2023-03-04,01:40:00,DRY,2.53,6.73,29.0,773.00,0.0
2023-03-04,01:45:00,DRY,2.80,6.60,29.5,773.00,0.0
2023-03-04,01:50:00,DRY,3.67,6.60,30.0,773.00,0.0
2023-03-04,01:55:00,DRY,3.05,6.70,28.5,773.00,0.0
2023-03-04,02:00:00,DRY,2.80,6.83,28.0,773.00,0.0
2023-03-04,02:05:00,DRY,3.00,6.85,28.0,773.00,0.0
2023-03-04,02:10:00,DRY,3.73,6.77,29.0,772.33,0.0
2023-03-04,02:15:00,DRY,2.70,6.80,29.0,772.00,0.0
2023-03-04,02:20:00,DRY,2.63,6.77,29.3,772.33,0.0
2023-03-04,02:25:00,DRY,3.00,6.60,30.5,772.00,0.0
2023-03-04,02:30:00,DRY,3.60,6.60,30.3,772.00,0.0
2023-03-04,02:35:00,DRY,3.25,6.65,30.0,772.00,0.0
2023-03-04,02:40:00,DRY,2.73,6.60,30.0,772.00,0.0
2023-03-04,02:45:00,DRY,2.05,6.60,30.0,772.00,0.0
2023-03-04,02:50:00,DRY,3.53,6.50,30.0,772.00,0.0
2023-03-04,02:55:00,DRY,3.70,6.50,30.0,772.00,0.0
2023-03-04,03:00:00,DRY,3.97,6.43,30.0,772.00,0.0
2023-03-04,03:05:00,DRY,3.70,6.40,31.0,772.00,0.0
2023-03-04,03:10:00,DRY,3.43,6.50,31.0,772.00,0.0
2023-03-04,03:15:00,DRY,3.25,6.45,31.0,772.00,0.0
2023-03-04,03:20:00,DRY,3.27,6.50,30.7,772.00,0.0
2023-03-04,03:25:00,DRY,2.15,6.50,29.5,772.00,0.0
2023-03-04,03:30:00,DRY,1.77,6.63,23.7,772.00,0.0
2023-03-04,03:35:00,DRY,3.95,7.05,20.0,772.00,0.0
2023-03-04,03:40:00,DRY,3.17,7.20,20.3,772.00,0.0
2023-03-04,03:45:00,DRY,2.60,7.15,22.0,772.00,0.0
2023-03-04,03:50:00,DRY,2.27,7.20,16.0,772.00,0.0
2023-03-04,03:55:00,DRY,3.60,7.45,13.0,772.00,0.0
2023-03-04,04:00:00,DRY,2.93,7.50,12.7,772.00,0.0
2023-03-04,04:05:00,DRY,2.25,7.55,13.5,772.00,0.0
2023-03-04,04:10:00,DRY,2.20,7.17,20.3,772.00,0.0
2023-03-04,04:15:00,DRY,2.00,6.90,21.5,771.50,0.0
2023-03-04,04:20:00,DRY,3.97,7.30,14.0,772.00,0.0
2023-03-04,04:25:00,DRY,5.25,7.75,13.5,772.00,0.0
2023-03-04,04:30:00,DRY,3.80,7.40,17.3,772.00,0.0
2023-03-04,04:35:00,DRY,4.55,7.30,18.0,772.00,0.0
2023-03-04,04:40:00,DRY,4.60,7.30,16.7,772.00,0.0
2023-03-04,04:45:00,DRY,4.15,7.55,12.5,771.00,0.0
2023-03-04,04:50:00,DRY,4.33,8.07,10.0,771.67,0.0
2023-03-04,04:55:00,DRY,2.00,8.00,10.5,771.50,0.0
2023-03-04,05:00:00,DRY,3.40,7.90,10.0,771.00,0.0
2023-03-04,05:05:00,DRY,4.05,7.85,10.0,771.00,0.0
2023-03-04,05:10:00,DRY,2.47,7.83,10.0,771.67,0.0
2023-03-04,05:15:00,DRY,2.00,7.70,10.0,771.00,0.0
2023-03-04,05:20:00,DRY,3.73,7.73,10.3,771.33,0.0
2023-03-04,05:25:00,DRY,4.40,7.85,10.0,771.50,0.0
2023-03-04,05:30:00,DRY,1.80,7.73,11.0,771.67,0.0
2023-03-04,05:35:00,DRY,4.40,7.65,10.5,771.00,0.0
2023-03-04,05:40:00,DRY,5.10,7.67,13.7,772.00,0.0
2023-03-04,05:45:00,DRY,4.60,7.30,19.0,771.50,0.0
2023-03-04,05:50:00,DRY,3.07,7.17,17.7,771.33,0.0
2023-03-04,05:55:00,DRY,2.65,6.85,28.0,772.00,0.0
2023-03-04,06:00:00,DRY,4.23,6.77,19.7,771.00,0.0
2023-03-04,06:05:00,DRY,4.00,7.35,17.5,771.50,0.0
2023-03-04,06:10:00,DRY,1.70,6.97,20.0,772.00,0.0
2023-03-04,06:15:00,DRY,1.85,7.10,16.5,772.00,0.0
2023-03-04,06:20:00,DRY,2.50,7.20,15.3,772.00,0.0
2023-03-04,06:25:00,DRY,2.15,7.20,17.5,772.00,0.0
2023-03-04,06:30:00,DRY,2.10,7.03,16.0,772.00,0.0
2023-03-04,06:35:00,DRY,2.85,7.30,13.0,772.00,0.0
2023-03-04,06:40:00,DRY,2.77,7.47,14.7,772.00,0.0
2023-03-04,06:45:00,DRY,2.45,7.35,14.0,772.00,0.0
2023-03-04,06:50:00,DRY,1.93,7.43,14.0,772.00,0.0
2023-03-04,06:55:00,DRY,3.00,7.05,23.0,772.00,0.0
2023-03-04,07:00:00,DRY,2.87,6.90,19.0,772.00,0.0
2023-03-04,07:05:00,DRY,1.95,7.10,13.5,772.00,0.0
2023-03-04,07:10:00,DRY,2.33,7.20,13.0,772.00,0.0
2023-03-04,07:15:00,DRY,1.80,7.30,12.0,772.00,0.0
2023-03-04,07:20:00,DRY,1.20,7.23,12.3,772.00,0.0
2023-03-04,07:25:00,DRY,1.45,7.05,14.0,772.00,0.0
2023-03-04,07:30:00,DRY,1.37,7.00,12.0,772.00,0.0
2023-03-04,07:35:00,DRY,2.10,7.05,12.0,772.00,0.0
2023-03-04,07:40:00,DRY,2.43,7.33,11.7,772.00,6.3
2023-03-04,07:45:00,DRY,2.30,7.40,12.5,772.00,14.0
2023-03-04,07:50:00,DRY,1.93,7.07,18.0,772.00,21.3
2023-03-04,07:55:00,DRY,2.80,6.25,27.0,772.00,28.0
2023-03-04,08:00:00,DRY,2.70,5.97,27.0,772.00,34.7
2023-03-04,08:05:00,DRY,2.20,6.05,27.0,772.00,44.0
2023-03-04,08:10:00,DRY,3.20,6.17,26.3,772.00,52.3
2023-03-04,08:15:00,DRY,2.45,6.15,26.5,772.00,62.5
2023-03-04,08:20:00,DRY,2.53,6.37,26.7,772.00,72.7
2023-03-04,08:25:00,DRY,3.40,6.25,26.5,772.00,76.5
2023-03-04,08:30:00,DRY,2.73,6.43,21.3,772.00,73.7
2023-03-04,08:35:00,DRY,1.80,6.75,19.5,772.00,85.5
2023-03-04,08:40:00,DRY,2.13,6.93,16.0,772.33,154.3
2023-03-04,08:45:00,DRY,2.90,7.15,14.0,773.00,264.5
2023-03-04,08:50:00,DRY,1.70,7.27,14.7,773.00,285.0
2023-03-04,08:55:00,DRY,1.45,7.45,14.0,773.00,289.0
2023-03-04,09:00:00,DRY,1.70,7.50,15.7,773.00,312.0
2023-03-04,09:05:00,DRY,2.65,7.50,24.0,773.00,383.0
2023-03-04,09:10:00,DRY,1.07,7.43,25.3,773.00,395.3
2023-03-04,09:15:00,DRY,1.70,7.35,28.5,773.00,423.0
2023-03-04,09:20:00,DRY,2.27,7.10,27.0,773.00,340.0
2023-03-04,09:25:00,DRY,1.50,7.05,29.5,773.00,285.5
2023-03-04,09:30:00,DRY,2.80,6.73,28.0,773.00,348.7
2023-03-04,09:35:00,DRY,3.05,6.60,27.5,773.00,445.0
2023-03-04,09:40:00,DRY,2.40,6.97,25.0,773.00,513.3
2023-03-04,09:45:00,DRY,2.45,6.80,32.0,773.00,532.0
2023-03-04,09:50:00,DRY,2.97,6.57,33.3,773.00,523.3
2023-03-04,09:55:00,DRY,1.65,6.70,30.5,773.00,551.0
2023-03-04,10:00:00,DRY,1.63,7.13,27.3,773.00,592.3
2023-03-04,10:05:00,DRY,2.50,7.35,29.0,773.00,593.0
2023-03-04,10:10:00,DRY,2.87,7.23,29.3,773.00,621.7
2023-03-04,10:15:00,DRY,1.70,7.70,22.0,773.00,653.0
2023-03-04,10:20:00,DRY,2.50,8.17,18.0,773.00,665.0
2023-03-04,10:25:00,DRY,2.65,8.40,19.5,773.00,697.5
2023-03-04,10:30:00,DRY,2.23,8.47,19.7,773.00,670.3
2023-03-04,10:35:00,DRY,1.65,8.75,20.5,773.00,680.5
2023-03-04,10:40:00,DRY,2.60,8.73,20.7,773.00,724.7
2023-03-04,10:45:00,DRY,2.85,8.75,20.0,773.00,727.0
2023-03-04,10:50:00,DRY,2.20,8.83,18.3,773.00,750.0
2023-03-04,10:55:00,DRY,1.55,9.20,16.5,773.00,760.5
2023-03-04,11:00:00,DRY,2.47,9.40,17.0,773.00,772.3
2023-03-04,11:05:00,DRY,2.35,9.50,17.5,773.00,784.5
2023-03-04,11:10:00,DRY,2.83,9.47,20.0,773.00,795.3
2023-03-04,11:15:00,DRY,1.65,9.25,20.5,773.00,800.0
2023-03-04,11:20:00,DRY,2.50,9.67,19.7,773.00,800.0
2023-03-04,11:25:00,DRY,2.50,9.75,16.5,773.00,800.0
2023-03-04,11:30:00,DRY,2.37,10.03,17.0,773.00,800.0
2023-03-04,11:35:00,DRY,1.60,10.00,20.5,773.00,800.0
2023-03-04,11:40:00,DRY,2.13,10.33,26.3,773.00,800.0
2023-03-04,11:45:00,DRY,1.55,10.25,36.0,773.00,800.0
2023-03-04,11:50:00,DRY,2.13,10.03,30.3,773.00,800.0
2023-03-04,11:55:00,DRY,2.15,10.15,30.5,773.00,800.0
2023-03-04,12:00:00,DRY,1.67,10.73,23.3,773.00,800.0
2023-03-04,12:05:00,DRY,1.70,11.10,14.0,773.00,800.0
2023-03-04,12:10:00,DRY,2.03,11.00,17.7,773.00,800.0
2023-03-04,12:15:00,DRY,2.45,10.70,19.0,773.00,800.0
2023-03-04,12:20:00,DRY,1.53,11.20,19.3,773.00,800.3
2023-03-04,12:25:00,DRY,2.20,11.40,17.0,772.50,800.0
2023-03-04,12:30:00,DRY,2.37,11.40,19.7,772.00,800.0
2023-03-04,12:35:00,DRY,3.75,11.25,17.0,772.00,800.0
2023-03-04,12:40:00,DRY,3.23,11.17,17.0,772.00,800.3
2023-03-04,12:45:00,DRY,2.50,11.20,21.5,772.00,800.0
2023-03-04,12:50:00,DRY,2.37,11.37,19.7,772.00,800.0
2023-03-04,12:55:00,DRY,3.80,11.20,21.5,772.00,800.0
2023-03-04,13:00:00,DRY,3.30,10.97,20.0,772.00,800.0
2023-03-04,13:05:00,DRY,2.15,10.90,19.0,772.00,800.0
2023-03-04,13:10:00,DRY,1.93,11.47,25.0,772.00,800.0
2023-03-04,13:15:00,DRY,1.30,11.45,36.5,772.00,800.0
2023-03-04,13:20:00,DRY,2.37,10.80,51.3,772.00,800.0
2023-03-04,13:25:00,DRY,2.20,10.55,46.0,772.00,275.0
2023-03-04,13:30:00,DRY,2.90,10.00,71.5,772.00,608.0
2023-03-04,13:35:00,DRY,2.00,9.40,62.0,772.00,800.0
2023-03-04,13:40:00,DRY,1.97,10.00,34.7,772.00,800.0
2023-03-04,13:45:00,DRY,1.95,10.55,51.5,772.00,800.0
2023-03-04,13:50:00,DRY,0.90,9.70,71.7,772.00,800.0
2023-03-04,13:55:00,DRY,2.00,9.60,52.5,772.00,800.0
2023-03-04,14:00:00,DRY,3.37,10.53,20.7,772.00,800.0
2023-03-04,14:05:00,DRY,1.25,10.75,19.5,772.00,800.0
2023-03-04,14:10:00,DRY,1.90,11.20,19.3,772.00,800.0
2023-03-04,14:15:00,DRY,2.30,11.00,23.0,772.00,800.0
2023-03-04,14:20:00,DRY,3.33,11.00,19.7,772.00,800.0
2023-03-04,14:25:00,DRY,2.20,11.20,24.0,772.00,800.0
2023-03-04,14:30:00,DRY,2.33,11.07,23.3,772.00,800.0
2023-03-04,14:35:00,DRY,1.80,10.30,45.0,772.00,800.0
2023-03-04,14:40:00,DRY,1.70,9.80,73.3,772.00,800.0
2023-03-04,14:45:00,DRY,1.60,9.40,61.0,772.00,800.0
2023-03-04,14:50:00,DRY,2.60,10.57,37.3,772.00,638.3
2023-03-04,14:55:00,DRY,1.65,11.05,13.5,772.00,800.0
2023-03-04,15:00:00,DRY,1.17,10.93,18.0,772.00,757.3
2023-03-04,15:05:00,DRY,1.25,11.00,22.0,772.00,735.5
2023-03-04,15:10:00,DRY,1.37,11.03,27.3,772.00,757.7
2023-03-04,15:15:00,DRY,2.75,11.20,27.5,772.00,800.0
2023-03-04,15:20:00,DRY,2.17,11.17,23.0,772.00,749.7
2023-03-04,15:25:00,DRY,2.75,11.35,19.5,772.00,800.0
2023-03-04,15:30:00,DRY,3.97,10.90,14.7,771.33,683.3
2023-03-04,15:35:00,DRY,4.65,10.40,16.5,771.00,658.5
2023-03-04,15:40:00,DRY,2.33,10.17,19.0,771.67,361.3
2023-03-04,15:45:00,DRY,3.30,9.65,21.5,772.00,417.0
2023-03-04,15:50:00,DRY,3.20,9.40,22.0,772.00,442.7
2023-03-04,15:55:00,DRY,2.10,9.35,20.5,771.50,448.0
2023-03-04,16:00:00,DRY,1.73,9.63,18.7,771.33,473.0
2023-03-04,16:05:00,DRY,1.80,9.85,16.0,771.00,369.0
2023-03-04,16:10:00,DRY,2.30,9.47,17.3,771.00,375.0
2023-03-04,16:15:00,DRY,2.60,9.15,16.5,771.00,373.0
2023-03-04,16:20:00,DRY,3.13,9.13,18.0,771.00,364.7
2023-03-04,16:25:00,DRY,2.35,8.95,20.5,771.50,367.0
2023-03-04,16:30:00,DRY,2.43,9.17,18.7,771.00,342.7
2023-03-04,16:35:00,DRY,3.15,9.35,14.5,771.00,553.0
2023-03-04,16:40:00,DRY,3.67,9.50,13.7,771.00,636.3
2023-03-04,16:45:00,DRY,4.50,9.70,14.5,771.50,452.5
2023-03-04,16:50:00,DRY,1.57,9.57,16.3,771.67,556.3
2023-03-04,16:55:00,DRY,1.55,10.05,21.0,771.50,585.5
2023-03-04,17:00:00,DRY,3.20,9.97,17.0,771.33,539.7
2023-03-04,17:05:00,DRY,2.90,9.85,15.5,771.50,477.0
2023-03-04,17:10:00,DRY,2.30,9.57,15.0,771.67,367.3
2023-03-04,17:15:00,DRY,3.25,9.15,17.0,772.00,445.0
2023-03-04,17:20:00,DRY,1.67,9.33,15.3,771.33,337.7
2023-03-04,17:25:00,DRY,2.80,9.25,15.5,771.00,401.5
2023-03-04,17:30:00,DRY,3.00,9.30,16.7,771.00,389.7
2023-03-04,17:35:00,DRY,2.15,9.50,16.0,771.00,377.0
2023-03-04,17:40:00,DRY,2.73,9.50,15.7,771.00,262.0
2023-03-04,17:45:00,DRY,1.80,9.30,16.5,771.00,331.0
2023-03-04,17:50:00,DRY,1.23,9.30,18.7,771.00,315.3
2023-03-04,17:55:00,DRY,1.00,9.30,17.5,771.00,302.0
2023-03-04,18:00:00,DRY,2.77,9.30,19.7,771.00,275.7
2023-03-04,18:05:00,DRY,3.00,8.80,21.5,771.00,235.0
2023-03-04,18:10:00,DRY,0.93,8.60,18.3,771.33,189.0
2023-03-04,18:15:00,DRY,1.25,8.40,16.5,771.00,191.0
2023-03-04,18:20:00,DRY,1.23,8.40,15.0,771.00,152.0
2023-03-04,18:25:00,DRY,2.90,8.20,14.5,771.00,141.5
2023-03-04,18:30:00,DRY,2.30,8.07,15.7,771.00,73.7
2023-03-04,18:35:00,DRY,1.35,8.00,15.5,771.00,76.5
2023-03-04,18:40:00,DRY,1.80,7.90,15.7,771.33,46.7
2023-03-04,18:45:00,DRY,1.65,7.60,16.0,771.00,41.0
2023-03-04,18:50:00,DRY,1.67,7.67,14.7,771.00,23.7
2023-03-04,18:55:00,DRY,1.30,7.95,13.0,771.00,24.0
2023-03-04,19:00:00,DRY,0.90,7.93,14.0,771.00,19.7
2023-03-04,19:05:00,DRY,0.55,7.95,13.0,771.50,11.0
2023-03-04,19:10:00,DRY,0.87,8.03,11.3,771.33,5.0
2023-03-04,19:15:00,DRY,1.55,7.85,12.0,771.00,0.0
2023-03-04,19:20:00,DRY,0.73,7.60,12.7,771.33,0.0
2023-03-04,19:25:00,DRY,0.90,7.30,13.5,771.50,0.0
2023-03-04,19:30:00,DRY,0.83,7.13,12.7,771.00,0.0
2023-03-04,19:35:00,DRY,1.00,7.10,12.5,772.00,0.0
2023-03-04,19:40:00,DRY,0.90,6.90,13.0,772.00,0.0
2023-03-04,19:45:00,DRY,1.00,6.85,11.5,772.00,0.0
2023-03-04,19:50:00,DRY,0.57,7.03,11.7,772.00,0.0
2023-03-04,19:55:00,DRY,1.25,6.90,12.0,772.00,0.0
2023-03-04,20:00:00,DRY,1.60,6.97,12.0,772.00,0.0
2023-03-04,20:05:00,DRY,2.05,7.05,11.5,772.00,0.0
2023-03-04,20:10:00,DRY,1.53,6.90,12.7,772.00,0.0
2023-03-04,20:15:00,DRY,1.40,6.85,12.5,772.00,0.0
2023-03-04,20:20:00,DRY,0.47,6.97,12.0,772.00,0.0
2023-03-04,20:25:00,DRY,1.15,7.00,12.0,772.00,0.0
2023-03-04,20:30:00,DRY,1.60,7.20,11.0,772.00,0.0
2023-03-04,20:35:00,,,,,,
2023-03-04,20:40:00,,,,,,
2023-03-04,20:45:00,,,,,,
2023-03-04,20:50:00,,,,,,
2023-03-04,20:55:00,,,,,,
2023-03-04,21:00:00,,,,,,
2023-03-04,21:05:00,,,,,,
2023-03-04,21:10:00,,,,,,
2023-03-04,21:15:00,,,,,,
2023-03-04,21:20:00,,,,,,
2023-03-04,21:25:00,,,,,,
2023-03-04,21:30:00,,,,,,
2023-03-04,21:35:00,,,,,,